Regional Weather Roundup
Issued by NWS Goodland, KS

Home | Current Version | Previous Version | Text Only | Print | Product List | Glossary Off
Versions: 1 2 3 4 5 6 7 8 9 10 11 12 13 14 15 16 17 18 19 20 21 22 23 24 25 26 27 28 29 30 31 32 33 34 35 36 37 38 39 40 41 42 43 44 45 46 47 48 49 50

000
ASUS43 KGLD 242059
RWRGLD

GOODLAND FORECAST AREA HOURLY WEATHER ROUNDUP
NATIONAL WEATHER SERVICE GOODLAND KS
300 PM MDT TUE APR 24 2018

...OFFICIAL OBSERVATIONS...

CITY           SKY/WX    TMP DP  RH WIND       PRES   REMARKS
GOODLAND KS    CLOUDY    43  37  79 N25G36    30.31F
HILL CITY KS   LGT RAIN  45  42  89 NW16G24   30.30S
IMPERIAL NEB   CLOUDY    43  36  76 NW24G32   30.34F
MCCOOK NEB     CLOUDY    44  39  82 NW21      30.31F
AKRON CO       CLOUDY    40  31  70 N21       30.37F
BURLINGTON CO  CLOUDY    43  35  73 N21G33    30.33S
LIMON CO       CLOUDY    38  31  76 N20G28    30.36F
$$

...UNOFFICIAL OBSERVATIONS...

CITY           SKY/WX    TMP DP  RH WIND       PRES   REMARKS
NORTON KS      LGT RAIN  43  39  87 NW17G24   30.28
SHARON SPRINGS   N/A     43  38  83 N21G28      N/A
KIT CARSON CO    N/A     43  33  68 MISG        N/A
YUMA CO        CLOUDY    41  32  70 N20       30.36F
$$



USA.gov is the U.S. government's official web portal to all federal, state and local government web resources and services.